Regional Weather Roundup
Issued by NWS Cleveland, OH

Home | Current Version | Previous Version | Graphics & Text | Print | Product List | Glossary On
Versions: 1 2 3 4 5 6 7 8 9 10 11 12 13 14 15 16 17 18 19 20 21 22 23 24 25 26 27 28 29 30 31 32 33 34 35 36 37 38 39 40 41 42 43 44 45 46 47 48 49 50
000
ASUS41 KCLE 100712
RWRCLE
OHIO REGIONAL WEATHER ROUNDUP
NATIONAL WEATHER SERVICE WILMINGTON, OH
200 AM EST SAT DEC 10 2016

NOTE: "FAIR" INDICATES FEW OR NO CLOUDS BELOW 12,000 FEET WITH NO
SIGNIFICANT WEATHER AND/OR OBSTRUCTIONS TO VISIBILITY.

OHZ001>008-015>018-024>027-034-035-043-044-100800-
   NORTHWEST OHIO

CITY           SKY/WX    TMP DP  RH WIND       PRES   REMARKS
DEFIANCE       MOCLDY    24  13  62 W6        30.47S WCI  17
FINDLAY        CLOUDY    23  14  68 W10       30.46R WCI  12
TOLEDO EXPRESS CLOUDY    24  17  74 W16       30.45R WCI  11
TOLEDO EXEC    CLOUDY    25  17  72 W13       30.45S WCI  14
LIMA           FAIR      21  17  84 W9        30.46R WCI  11
$$

OHZ009>014-019>023-028>033-038-089-100800-
   NORTHEAST OHIO

CITY           SKY/WX    TMP DP  RH WIND       PRES   REMARKS
CLE-HOPKINS    CLOUDY    27  18  69 SW16      30.43S WCI  15
CLE-LAKEFRONT  LGT SNOW  26  20  77 SW18      30.40F WCI  13
CUY CO. ARPT   NOT AVBL
LORAIN-ELYRIA  CLOUDY    24  18  77 W13       30.43S WCI  12
ASHTABULA      LGT SNOW  24  22  91 W12       30.36S FOG     WCI  13
AKRON-CANTON   FLURRIES  24  17  74 W12       30.40S WCI  13
WOOSTER        MOCLDY    23  17  78 W10       30.43R WCI  12
MANSFIELD      CLOUDY    21  18  88 W9        30.42R WCI  11
YOUNGSTOWN     FLURRIES  24  17  74 W13       30.36F WCI  12
$$

OHZ042-051>053-060>062-070>072-077>081-100800-
  SOUTHWEST OHIO

CITY           SKY/WX    TMP DP  RH WIND       PRES   REMARKS
CINC-COVINGTON FAIR      19  15  84 SW5       30.52F WCI  12
CINC-LUNKEN    FAIR      20  16  84 S6        30.58R WCI  12
HAMILTON       CLOUDY    21  18  88 CALM      30.55S
DAYTON         CLOUDY    22  19  89 SW7       30.50R WCI  13
WRIGHT-PAT AFB CLOUDY    24  20  85 SW8       30.50R WCI  14
DAYTON GENERAL CLOUDY    22  16  78 SW9       30.49S WCI  12
WILMINGTON     CLOUDY    21  16  81 SW9       30.50R WCI  11
$$

OHZ036-037-039>041-045>050-054>059-063>069-073>076-082>088-100800-
  CENTRAL AND SOUTHEAST OHIO

CITY           SKY/WX    TMP DP  RH WIND       PRES   REMARKS
COLUMBUS       CLOUDY    24  16  71 W9        30.48R WCI  14
OSU AIRPORT    CLOUDY    24  17  74 W7        30.48R WCI  16
BOLTON FIELD   CLOUDY    24  21  89 SW6       30.49S WCI  16
RICKENBACK AFB FLURRIES  23  20  90 W7        30.50R WCI  14
NEWARK         CLOUDY    23  19  85 SW8       30.47R WCI  14
MARION         FAIR      23  15  71 W8        30.46R WCI  14
LANCASTER      CLOUDY    22  18  85 SW6       30.50R WCI  14
ZANESVILLE     CLOUDY    23  18  81 SW7       30.47S WCI  15
NEW PHILLY     CLOUDY    25  18  74 W7        30.45S WCI  17
$$



USA.gov is the U.S. government's official web portal to all federal, state and local government web resources and services.